This demonstration page uses our WeatherBlox Daily Observations layout. Learn more.

Left ArrowRight Arrow

Hourly Observations for May 26, 2022

Temp ( °F °C ) Dew Point ( °F °C ) Humidity (%) Winds ( mph kmh ) Pressure ( in mb ) Visibility ( mi km ) Precip ( " mm )
12:53 am 00:53 Clear 64 17.8 31 -0.6 29 29 SSE 10 17 29.88 1012 10 16 0.00 0.00
1:53 am 01:53 Clear 61 16.1 30 -1.1 31 31 SE 8 13 29.88 1012 10 16 0.00 0.00
2:53 am 02:53 Clear 60 15.6 31 -0.6 33 33 ESE 7 11 29.87 1011 10 16 0.00 0.00
3:53 am 03:53 Clear 60 15.6 32 0 35 35 ESE 9 15 29.87 1011 10 16 0.00 0.00
4:53 am 04:53 Clear 59 15 32 0 36 36 E 7 11 29.87 1011 10 16 0.00 0.00
5:53 am 05:53 Clear 58 14.4 33 0.6 39 39 E 7 11 29.88 1012 10 16 0.00 0.00
6:53 am 06:53 Sunny 58 14.4 34 1.1 41 41 ESE 10 17 29.89 1012 10 16 0.00 0.00
7:53 am 07:53 Sunny 63 17.2 36 2.2 37 37 SE 14 22 29.90 1012 10 16 0.00 0.00
8:53 am 08:53 Sunny 68 20 37 2.8 32 32 SE 15 24 29.91 1013 10 16 0.00 0.00
9:53 am 09:53 Sunny 74 23.3 37 2.8 26 26 SSE 15 24 29.91 1013 10 16 0.00 0.00
10:53 am 10:53 Sunny 78 25.6 37 2.8 23 23 SSE 8 13 29.91 1013 10 16 0.00 0.00
11:53 am 11:53 Sunny 82 27.8 34 1.1 18 18 SSE 10 17 29.91 1013 10 16 0.00 0.00
12:53 pm 12:53 Sunny 84 28.9 34 1.1 17 17 VRB 7 11 29.91 1013 10 16 0.00 0.00
1:53 pm 13:53 Sunny 88 31.1 33 0.6 14 14 E 7 11 29.88 1012 10 16 0.00 0.00
2:53 pm 14:53 Sunny 90 32.2 30 -1.1 12 12 VRB 7 11 29.86 1011 10 16 0.00 0.00
3:53 pm 15:53 Sunny 93 33.9 29 -1.7 10 10 VRB 3 6 29.84 1010 10 16 0.00 0.00
4:53 pm 16:53 Sunny 94 34.4 27 -2.8 9 9 N 5 7 29.82 1010 10 16 0.00 0.00
5:53 pm 17:53 Sunny 94 34.4 24 -4.4 8 8 SE 5 7 29.81 1009 10 16 0.00 0.00
6:53 pm 18:53 Sunny 95 35 23 -5 7 7 N 3 6 29.80 1009 10 16 0.00 0.00
7:43 pm 19:43 Mostly Sunny 94 34.4 23 -5 8 8 undefined N/A 29.69 1006 10 16 0.00 0.00
7:53 pm 19:53 Mostly Sunny 94 34.4 23 -5 8 8 N 6 9 29.80 1009 10 16 0.00 0.00
8:53 pm 20:53 Clear 90 32.2 24 -4.4 9 9 NE 5 7 29.82 1010 10 16 0.00 0.00
9:53 pm 21:53 Clear 82 27.8 22 -5.6 11 11 ENE 7 11 29.83 1010 10 16 0.00 0.00
10:53 pm 22:53 Clear 81 27.2 30 -1.1 16 16 E 12 19 29.86 1011 10 16 0.00 0.00
11:53 pm 23:53 Clear 79 26.1 31 -0.6 17 17 E 13 20 29.87 1011 10 16 0.00 0.00

Powered by AerisWeather